Tracking 20621 objects as of 1-Apr-2020
HD Live streaming from Space Station
objects crossing your sky now

OV1-13 R/B

Track OV1-13 R/B now!
10-day predictions


NORAD ID: 3212
Int'l Code: 1968-026D
Perigee: 572.3 km
Apogee: 9,180.8 km
Inclination: 100.0 °
Period: 197.9 minutes
Semi major axis: 11247 km
RCS: 1.1486 m2 (large)
Launch date: April 6, 1968
Source: United States (US)
Launch site: AIR FORCE WESTERN TEST RANGE (AFWTR)

Note: This is a ROCKET BODY
aabbcc
Your satellite tracking list
Your tracking list is empty




NASA's NSSDC Master Catalog

Two Line Element Set (TLE):
1  3212U 68026D   20091.27527299 -.00000004  00000-0  13992-4 0  9998
2  3212  99.9577  37.3591 3826835 227.1713  93.7168  7.27809137376736
Source of the keplerian elements: AFSPC